User: anonymous   Login
Location: Unspecified
(0.0000°N, 0.0000°E)
Time: 09:25:31
(UTC+00:00)
Language:

Kosmos-2180 - Orbit

View from above orbital plane
View from above orbital plane
View from above satellite
View from above satellite

Ground track
Ground track

The orbit data is extracted from the following two-line orbital elements,

1 21875U 92008A   17327.74528156  .00000030  00000-0  15330-4 0  9999
2 21875  82.9286  18.6998 0038326  36.6276 102.6002 13.73725203291650
Epoch (UTC): 23 November 2017 17:53:12
Eccentricity: 0.0038326
inclination: 82.9286°
perigee height: 958 km
apogee height: 1014 km
right ascension of ascending node: 18.6998°
argument of perigee: 36.6276°
revolutions per day: 13.73725203
mean anomaly at epoch: 102.6002°
orbit number at epoch: 29165

The dashed part of the orbit path shows where the satellite is in the earth's shadow,  

DLR